N4MRV-1 Weather Reports


Display with metric or nautical units.
time (UTC)temp
F
wind
direction
speed
MPH
gust
MPH
rain 1hr
in
rain 24hr
in
rain mn
in
humidity
%
barometer
mb
20260904194516 92 0.0 1.0 0.00 0.00 0.00 64 1012.4
20260904193016 92 0.0 1.0 0.00 0.00 0.00 65 1012.8
20260904191516 93 293 1.0 3.0 0.00 0.00 0.00 65 1012.8
20260904190015 92 45 1.0 6.0 0.00 0.00 0.00 61 1013.0
20260904184516 92 270 1.0 3.0 0.00 0.00 0.00 63 1013.3
20260904183016 92 180 1.0 2.0 0.00 0.00 0.00 62 1013.6
20260904181515 92 315 1.0 4.0 0.00 0.00 0.00 61 1013.8
20260904180016 91 45 1.0 4.0 0.00 0.00 0.00 62 1014.0
20260904174515 91 293 1.0 4.0 0.00 0.00 0.00 63 1014.2
20260904173015 91 315 1.0 2.0 0.00 0.00 0.00 64 1014.3
20260904171515 91 293 1.0 6.0 0.00 0.00 0.00 63 1014.3
20260904170056 91 293 1.0 6.0 0.00 0.00 0.00 62 1014.3
20260904164515 92 225 1.0 3.0 0.00 0.00 0.00 62 1014.4
20260904163015 92 248 1.0 4.0 0.00 0.00 0.00 62 1014.5
20260904161515 92 293 1.0 3.0 0.00 0.00 0.00 63 1014.6
20260904160015 92 338 1.0 6.0 0.00 0.00 0.00 65 1014.8
20260904154515 92 0.0 4.0 0.00 0.00 0.00 65 1015.0
20260904153035 91 248 1.0 8.0 0.00 0.00 0.00 67 1015.0
20260904151515 90 293 1.0 4.0 0.00 0.00 0.00 71 1014.9
20260904150017 87 293 1.0 3.0 0.00 0.00 0.00 76 1014.9
20260904144517 85 23 1.0 3.0 0.00 0.00 0.00 79 1014.8
20260904143017 84 338 1.0 4.0 0.00 0.00 0.00 82 1014.6
20260904141537 82 338 1.0 5.0 0.00 0.00 0.00 85 1014.6
20260904140017 81 0 1.0 5.0 0.00 0.00 0.00 86 1014.6
20260904134517 80 315 1.0 5.0 0.00 0.00 0.00 87 1014.5
20260904133017 79 0.0 3.0 0.00 0.00 0.00 89 1014.4
20260904131517 77 248 1.0 2.0 0.00 0.00 0.00 91 1014.5
20260904130017 76 0.0 2.0 0.00 0.00 0.00 94 1014.4
20260904124537 75 0.0 1.0 0.00 0.00 0.00 94 1014.5
20260904123017 75 0.0 1.0 0.00 0.00 0.00 94 1014.4
20260904121517 74 0.0 1.0 0.00 0.00 0.00 93 1014.5
20260904120016 73 0.0 1.0 0.00 0.00 0.00 93 1014.6
20260904114517 73 0.0 0.0 0.00 0.00 0.00 92 1014.3
20260904113017 73 0.0 0.0 0.00 0.00 0.00 91 1014.3
20260904111537 73 0.0 0.0 0.00 0.00 0.00 91 1014.4
20260904110017 73 0.0 1.0 0.00 0.00 0.00 91 1014.4
20260904104517 73 0.0 0.0 0.00 0.00 0.00 89 1014.2
20260904103017 73 0.0 1.0 0.00 0.00 0.00 90 1014.2
20260904101516 74 0.0 0.0 0.00 0.00 0.00 89 1014.3
20260904100016 74 0.0 0.0 0.00 0.00 0.00 88 1014.3
20260904094516 74 0.0 0.0 0.00 0.00 0.00 88 1014.3
20260904093016 74 0.0 0.0 0.00 0.00 0.00 87 1014.4
20260904091516 75 0.0 0.0 0.00 0.00 0.00 87 1014.5
20260904090036 75 0.0 0.0 0.00 0.00 0.00 86 1014.6
20260904084516 76 0.0 0.0 0.00 0.00 0.00 85 1014.6
20260904083016 76 0.0 0.0 0.00 0.00 0.00 84 1014.5
20260904081536 76 0.0 0.0 0.00 0.00 0.00 84 1014.4
20260904080016 77 0.0 0.0 0.00 0.00 0.00 83 1014.4
20260904074516 77 0.0 0.0 0.00 0.00 0.00 82 1014.1
20260904073016 78 0.0 0.0 0.00 0.00 0.00 80 1014.0
20260904071536 78 0.0 0.0 0.00 0.00 0.00 80 1013.9
20260904070016 79 0.0 2.0 0.00 0.00 0.00 80 1013.9
20260904064516 79 0.0 1.0 0.00 0.00 0.00 78 1014.2
20260904063016 80 0.0 1.0 0.00 0.00 0.00 78 1014.1
20260904061516 80 158 1.0 3.0 0.00 0.00 0.00 77 1014.3
20260904060016 80 225 1.0 4.0 0.00 0.00 0.00 81 1015.0
20260904054516 79 270 2.0 8.0 0.00 0.00 0.00 87 1015.3
20260904053016 79 0.0 3.0 0.00 0.00 0.00 88 1014.5
20260904051516 79 0.0 0.0 0.00 0.00 0.00 88 1014.0
20260904050016 79 0.0 0.0 0.00 0.00 0.00 87 1014.2
20260904044516 79 0.0 0.0 0.00 0.00 0.00 87 1014.3
20260904043016 79 0.0 0.0 0.00 0.00 0.00 88 1014.4
20260904041516 79 0.0 0.0 0.00 0.00 0.00 89 1014.3
20260904040016 80 0.0 0.0 0.00 0.00 0.00 89 1014.5
20260904034517 80 0.0 0.0 0.00 0.00 0.00 89 1014.4
20260904033016 80 0.0 0.0 0.00 0.00 0.00 89 1014.5
20260904031517 80 0.0 0.0 0.00 0.00 0.00 89 1014.7
20260904030037 80 0.0 0.0 0.00 0.00 0.00 88 1014.7
20260904024516 81 0.0 1.0 0.00 0.00 0.00 88 1014.5
20260904023016 81 0.0 0.0 0.00 0.00 0.00 88 1014.6
20260904021557 81 0.0 0.0 0.00 0.00 0.00 88 1014.6
20260904020016 82 0.0 0.0 0.00 0.00 0.00 87 1014.4
20260904014516 82 0.0 1.0 0.00 0.00 0.00 87 1014.8
20260904013016 82 0.0 0.0 0.00 0.00 0.00 86 1014.8
20260904011516 83 0.0 0.0 0.00 0.00 0.00 85 1015.1
20260904010036 83 0.0 0.0 0.00 0.00 0.00 85 1015.2
20260904004516 83 0.0 0.0 0.00 0.00 0.00 83 1015.3
20260904003016 84 0.0 1.0 0.00 0.00 0.00 83 1015.4
20260904001516 85 0.0 0.0 0.00 0.00 0.00 82 1015.0
20260904000016 85 0.0 0.0 0.00 0.00 0.00 81 1014.7
20260903234516 86 0.0 0.0 0.00 0.00 0.00 80 1014.5
20260903233016 87 0.0 1.0 0.00 0.00 0.00 79 1014.4
20260903231516 87 0.0 0.0 0.00 0.00 0.00 78 1014.4
20260903230016 88 0.0 1.0 0.00 0.00 0.00 76 1014.3
20260903224516 89 0.0 1.0 0.00 0.00 0.00 75 1014.3
20260903223016 90 0.0 0.0 0.00 0.00 0.00 73 1014.3
20260903221516 90 0.0 0.0 0.00 0.00 0.00 72 1014.2
20260903220015 91 0.0 0.0 0.00 0.00 0.00 70 1014.4
20260903214536 91 0.0 1.0 0.00 0.00 0.00 69 1014.4
20260903213016 92 0.0 2.0 0.00 0.00 0.00 68 1014.5
20260903211515 92 0.0 1.0 0.00 0.00 0.00 68 1014.5
20260903210016 92 293 1.0 3.0 0.00 0.00 0.00 68 1014.6
20260903204535 92 0.0 3.0 0.00 0.00 0.00 66 1014.8
20260903203055 92 0.0 2.0 0.00 0.00 0.00 69 1014.8
20260903201515 92 0.0 4.0 0.00 0.00 0.00 67 1015.0
20260903200016 92 0.0 2.0 0.00 0.00 0.00 66 1015.2